Francistown, Botswana

9:59 AM CAT on May 28, 2017 (GMT +0200)
Francistown

Weather History for FBFT - March, 2013

Change the Weather History Date:

Saturday, March 30, 2013

  Actual Average Record
Temperature  
Mean Temperature 76 °F -  
Max Temperature 88 °F 81 °F 93 °F (2011)
Min Temperature 63 °F 57 °F 50 °F (2014)
Cooling Degree Days 10    
Growing Degree Days 26 (Base 50)    
Moisture  
Dew Point 59 °F    
Average Humidity 55    
Maximum Humidity 88    
Minimum Humidity 27    
Precipitation  
Precipitation 0.00 in - - ()
Sea Level Pressure  
Sea Level Pressure 30.09 in    
Wind  
Wind Speed 7 mph ()    
Max Wind Speed 16 mph    
Max Gust Speed -    
Visibility 6.1 miles    
Events      
Averages and records for this station are not official NWS values.
T = Trace of Precipitation, MM = Missing Value Source: Averaged Metar Reports

Daily Weather History Graph

Daily Weather History Graph

Search for Another Location

Airport or City:

Trip Planner

Search our weather history database for the weather conditions in past years. The results will help you decide how hot, cold, wet, or windy it might be!

Date:

Astronomy

Mar. 30, 2013 Rise Set
Actual Time 6:16 AM CAT 6:11 PM CAT
Civil Twilight 5:54 AM CAT 6:33 PM CAT
Nautical Twilight 5:28 AM CAT 6:59 PM CAT
Astronomical Twilight 5:03 AM CAT 7:25 PM CAT
Moon 8:38 PM CAT (3/30) 9:07 AM CAT (3/30)
Length of Visible Light 12h 39m
Length of Day
11h 54m
Waning Gibbous, 88% of the Moon is Illuminated
Mar 30
Waning Gibbous
Apr 3
Last Quarter
Apr 10
New
Apr 18
First Quarter
Apr 25
Full

Hourly Weather History & Observations

Time (CAT) Temp. Heat Index Dew Point Humidity Pressure Visibility Wind Dir Wind Speed Gust Speed Precip Events Conditions
12:00 AM 71.6 °F - 59.0 °F 64% 30.09 in - ESE 3.5 mph - N/A   Clear
1:00 AM 71.6 °F - 59.0 °F 64% 30.06 in - East 8.1 mph - N/A   Clear
2:00 AM 72 °F - 59 °F 55%  in 6 mi ENE 6.9 mph - -   Clear
2:00 AM 71.6 °F - 59.0 °F 64% 30.09 in - ENE 6.9 mph - N/A   Clear
3:00 AM 71.6 °F - 59.0 °F 64% 30.09 in - East 4.6 mph - N/A   Clear
4:00 AM 68.0 °F - 60.8 °F 78% 30.09 in - East 5.8 mph - N/A   Clear
5:00 AM 66.2 °F - 60.8 °F 83% 30.09 in - East 3.5 mph - N/A   Clear
6:00 AM 64.4 °F - 59.0 °F 83% 30.12 in - ESE 5.8 mph - N/A   Clear
7:00 AM 64.4 °F - 60.8 °F 88% 30.15 in - East 4.6 mph - N/A   Clear
8:00 AM 69 °F - 61 °F 68%  in 6 mi ENE 8.1 mph - -  
8:00 AM 68.0 °F - 60.8 °F 78% 30.15 in - ENE 8.1 mph - N/A   Clear
9:00 AM 75.2 °F - 60.8 °F 61% 30.15 in - ENE 12.7 mph - N/A   Clear
10:00 AM 78.8 °F - 59.0 °F 51% 30.15 in - East 16.1 mph - N/A   Clear
12:00 PM 84.2 °F 84.4 °F 60.8 °F 45% 30.12 in 6.2 mi East 9.2 mph - N/A   Partly Cloudy
1:00 PM 86.0 °F 85.4 °F 59.0 °F 40% 30.09 in 6.2 mi East 10.4 mph - N/A   Partly Cloudy
2:00 PM 87 °F - 58 °F 27%  in 6 mi ESE 11.5 mph - -   Mostly Cloudy
2:00 PM 86.0 °F 84.9 °F 57.2 °F 37% 30.06 in 6.2 mi ESE 11.5 mph - N/A   Mostly Cloudy
3:00 PM 89.6 °F 88.1 °F 57.2 °F 33% 30.04 in 6.2 mi East 11.5 mph - N/A   Mostly Cloudy
4:00 PM 87.8 °F 86.5 °F 57.2 °F 35% 30.04 in 6.2 mi ESE 8.1 mph - N/A   Mostly Cloudy
5:00 PM 86.0 °F 84.9 °F 57.2 °F 37% 30.04 in 6.2 mi East 10.4 mph - N/A   Scattered Clouds
6:00 PM 84.2 °F 83.0 °F 55.4 °F 37% 30.04 in 6.2 mi East 12.7 mph - N/A   Partly Cloudy
7:00 PM 80.6 °F 80.8 °F 57.2 °F 45% 30.04 in 6.2 mi ESE 11.5 mph - N/A   Partly Cloudy
8:00 PM 79 °F - 57 °F 36%  in 6 mi ESE 10.4 mph - -  
8:00 PM 78.8 °F - 57.2 °F 47% 30.06 in - ESE 10.4 mph - N/A   Clear
9:00 PM 77.0 °F - 57.2 °F 50% 30.09 in - ESE 9.2 mph - N/A   Clear
10:00 PM 75.2 °F - 57.2 °F 53% 30.09 in - East 6.9 mph - N/A   Clear
11:00 PM 75.2 °F - 57.2 °F 53% 30.09 in - East 9.2 mph - N/A   Clear